Howell, MI

6:10 AM EDT on July 28, 2017 (GMT -0400)
Livingston County

Weather History for KOZW - April, 2013

Change the Weather History Date:

Sunday, April 28, 2013

  Actual Average Record
Temperature  
Mean Temperature 54 °F -  
Max Temperature 60 °F 62 °F 78 °F (2003)
Min Temperature 48 °F 40 °F 30 °F (1998)
Degree Days  
Heating Degree Days 11    
Growing Degree Days 4 (Base 50)    
Moisture  
Dew Point 46 °F    
Average Humidity 78    
Maximum Humidity 100    
Minimum Humidity 50    
Precipitation  
Precipitation 0.00 in - - ()
Sea Level Pressure  
Sea Level Pressure 29.94 in    
Wind  
Wind Speed 6 mph (ESE)    
Max Wind Speed 16 mph    
Max Gust Speed 22 mph    
Visibility 7 miles    
Events Fog , Rain    
Averages and records for this station are not official NWS values.
T = Trace of Precipitation, MM = Missing Value Source: NWS Daily Summary

Daily Weather History Graph

Daily Weather History Graph

Search for Another Location

Airport or City:

Trip Planner

Search our weather history database for the weather conditions in past years. The results will help you decide how hot, cold, wet, or windy it might be!

Date:

Astronomy

Apr. 28, 2013 Rise Set
Actual Time 6:34 AM EDT 8:33 PM EDT
Civil Twilight 6:03 AM EDT 9:03 PM EDT
Nautical Twilight 5:26 AM EDT 9:41 PM EDT
Astronomical Twilight 4:46 AM EDT 10:22 PM EDT
Moon No Moon Rise 8:47 AM EDT
Length of Visible Light 14h 59m
Length of Day
13h 58m
Waning Gibbous, 89% of the Moon is Illuminated
Apr 28
Waning Gibbous
May 2
Last Quarter
May 9
New
May 18
First Quarter
May 25
Full

Hourly Weather History & Observations

Time (EDT) Temp. Dew Point Humidity Pressure Visibility Wind Dir Wind Speed Gust Speed Precip Events Conditions
12:15 AM 51.1 °F 36.7 °F 58% 30.10 in 10.0 mi ESE 6.9 mph - N/A   Clear
12:35 AM 49.6 °F 36.3 °F 60% 30.10 in 10.0 mi SE 4.6 mph - N/A   Clear
12:55 AM 48.6 °F 36.7 °F 64% 30.09 in 10.0 mi ESE 4.6 mph - N/A   Clear
1:15 AM 50.5 °F 36.7 °F 59% 30.09 in 10.0 mi ESE 5.8 mph - N/A   Scattered Clouds
1:34 AM 51.3 °F 37.4 °F 59% 30.08 in 10.0 mi East 5.8 mph - N/A   Mostly Cloudy
1:55 AM 51.3 °F 36.5 °F 57% 30.07 in 10.0 mi East 5.8 mph - N/A   Overcast
2:15 AM 50.9 °F 36.5 °F 58% 30.06 in 10.0 mi East 5.8 mph - N/A   Overcast
2:34 AM 51.3 °F 36.7 °F 57% 30.06 in 10.0 mi East 4.6 mph - N/A   Overcast
2:55 AM 51.8 °F 36.1 °F 55% 30.04 in 10.0 mi East 5.8 mph - N/A   Overcast
3:15 AM 52.2 °F 35.8 °F 54% 30.03 in 10.0 mi ESE 5.8 mph - N/A   Overcast
3:34 AM 52.7 °F 34.7 °F 50% 30.02 in 10.0 mi ESE 6.9 mph - N/A   Overcast
3:55 AM 52.7 °F 34.3 °F 50% 30.02 in 10.0 mi ESE 5.8 mph - N/A   Overcast
4:15 AM 52.3 °F 34.7 °F 51% 30.01 in 10.0 mi East 4.6 mph - N/A   Overcast
4:34 AM 52.7 °F 34.5 °F 50% 30.01 in 10.0 mi ESE 5.8 mph - N/A   Overcast
4:55 AM 52.3 °F 34.9 °F 51% 30.01 in 10.0 mi East 3.5 mph - N/A   Overcast
5:15 AM 52.2 °F 35.4 °F 53% 30.00 in 10.0 mi ENE 3.5 mph - N/A   Overcast
5:35 AM 52.0 °F 35.1 °F 53% 30.00 in 10.0 mi ENE 4.6 mph - N/A   Overcast
5:55 AM 51.4 °F 36.5 °F 57% 30.00 in 10.0 mi ESE 3.5 mph - N/A   Overcast
6:15 AM 52.2 °F 35.8 °F 54% 30.00 in 10.0 mi ESE 5.8 mph - N/A   Overcast
6:35 AM 52.0 °F 36.3 °F 55% 29.99 in 10.0 mi ESE 4.6 mph - N/A   Overcast
6:55 AM 52.0 °F 36.5 °F 56% 29.99 in 10.0 mi ESE 5.8 mph - N/A   Overcast
7:15 AM 51.8 °F 37.4 °F 58% 29.99 in 10.0 mi ESE 6.9 mph - N/A   Overcast
7:35 AM 52.3 °F 37.2 °F 56% 29.98 in 10.0 mi ESE 6.9 mph - N/A   Overcast
7:55 AM 52.9 °F 37.9 °F 57% 29.98 in 10.0 mi ESE 5.8 mph - N/A   Overcast
8:15 AM 53.4 °F 38.5 °F 57% 29.98 in 10.0 mi ESE 5.8 mph - N/A   Overcast
8:35 AM 55.2 °F 39.4 °F 55% 29.98 in 10.0 mi ESE 5.8 mph - N/A   Overcast
9:15 AM 57.2 °F 42.3 °F 57% 29.98 in 10.0 mi SE 6.9 mph - N/A   Overcast
9:35 AM 58.1 °F 43.5 °F 58% 29.97 in 10.0 mi SE 8.1 mph - N/A   Overcast
9:54 AM 59.0 °F 43.9 °F 57% 29.96 in 10.0 mi ESE 10.4 mph - N/A   Overcast
10:15 AM 59.4 °F 44.4 °F 58% 29.95 in 10.0 mi ESE 11.5 mph - N/A   Overcast
10:35 AM 60.6 °F 45.9 °F 58% 29.96 in 10.0 mi SE 15.0 mph 21.9 mph N/A   Overcast
10:54 AM 58.8 °F 46.0 °F 63% 29.95 in 10.0 mi SE 16.1 mph 21.9 mph N/A   Overcast
11:15 AM 57.2 °F 47.1 °F 69% 29.95 in 10.0 mi SE 13.8 mph - N/A   Overcast
11:35 AM 56.8 °F 48.6 °F 74% 29.95 in 10.0 mi ESE 13.8 mph 17.3 mph N/A   Overcast
11:54 AM 55.6 °F 51.4 °F 86% 29.94 in 7.0 mi ESE 10.4 mph - N/A Rain Light Rain
12:15 PM 54.7 °F 52.2 °F 91% 29.93 in 5.0 mi SE 10.4 mph - N/A Rain Light Rain
12:35 PM 54.9 °F 52.9 °F 93% 29.93 in 7.0 mi ESE 9.2 mph - N/A Rain Light Rain
12:55 PM 54.5 °F 52.7 °F 94% 29.92 in 7.0 mi SE 11.5 mph - N/A Rain Light Rain
1:15 PM 54.1 °F 52.7 °F 95% 29.92 in 7.0 mi SE 10.4 mph 16.1 mph N/A Rain Light Rain
1:35 PM 54.0 °F 52.5 °F 95% 29.91 in 7.0 mi ESE 10.4 mph - N/A   Overcast
1:55 PM 54.0 °F 52.7 °F 95% 29.91 in 5.0 mi ESE 8.1 mph - N/A   Light Drizzle
2:15 PM 54.1 °F 52.9 °F 95% 29.90 in 3.0 mi SE 9.2 mph - N/A   Overcast
2:35 PM 54.0 °F 52.9 °F 96% 29.90 in 2.5 mi ESE 5.8 mph - N/A   Overcast
2:55 PM 53.6 °F 52.7 °F 97% 29.89 in 1.5 mi East 10.4 mph - N/A   Overcast
3:15 PM 53.6 °F 52.9 °F 97% 29.89 in 1.5 mi ESE 6.9 mph - N/A   Drizzle
3:35 PM 53.8 °F 53.2 °F 98% 29.88 in 1.8 mi East 8.1 mph - N/A   Drizzle
3:55 PM 53.6 °F 53.2 °F 99% 29.88 in 2.0 mi East 8.1 mph - N/A Rain Light Rain
4:15 PM 53.8 °F 53.6 °F 99% 29.88 in 2.0 mi ESE 4.6 mph - N/A   Drizzle
4:35 PM 53.6 °F 53.2 °F 99% 29.87 in 2.0 mi East 6.9 mph - N/A   Drizzle
4:55 PM 53.8 °F 53.6 °F 99% 29.87 in 2.5 mi East 5.8 mph - N/A Rain Rain
5:15 PM 53.8 °F 53.6 °F 99% 29.86 in 3.0 mi East 5.8 mph - N/A Rain Rain
5:35 PM 53.8 °F 53.6 °F 99% 29.86 in 2.5 mi East 6.9 mph - N/A   Drizzle
5:54 PM 54.0 °F 53.8 °F 99% 29.86 in 3.0 mi East 5.8 mph - N/A Rain Light Rain
6:15 PM 54.0 °F 53.8 °F 99% 29.86 in 3.0 mi East 4.6 mph - N/A   Light Drizzle
6:35 PM 54.0 °F 53.8 °F 99% 29.85 in 2.0 mi East 5.8 mph - N/A Rain Light Rain
6:55 PM 54.0 °F 53.8 °F 99% 29.85 in 2.0 mi ESE 6.9 mph - N/A Rain Light Rain
7:15 PM 54.1 °F 54.1 °F 100% 29.84 in 3.0 mi East 5.8 mph - N/A Rain Light Rain
7:35 PM 54.5 °F 54.5 °F 100% 29.84 in 5.0 mi East 5.8 mph - N/A Rain Light Rain
7:55 PM 54.5 °F 54.1 °F 99% 29.84 in 5.0 mi East 5.8 mph - N/A   Overcast
8:15 PM 54.1 °F 54.1 °F 100% 29.84 in 1.5 mi East 5.8 mph - N/A   Overcast
8:34 PM 53.8 °F 53.8 °F 100% 29.84 in 3.0 mi East 5.8 mph - N/A Rain Light Rain
8:55 PM 53.8 °F 53.8 °F 100% 29.85 in 10.0 mi East 5.8 mph - N/A   Overcast
9:15 PM 53.8 °F 53.6 °F 99% 29.85 in 5.0 mi East 4.6 mph - N/A   Overcast
9:34 PM 53.6 °F 53.6 °F 100% 29.85 in 7.0 mi East 3.5 mph - N/A   Overcast
9:55 PM 53.8 °F 53.8 °F 100% 29.86 in 7.0 mi Calm Calm - N/A   Overcast
10:15 PM 53.6 °F 53.6 °F 100% 29.86 in 4.0 mi Calm Calm - N/A   Overcast
10:35 PM 53.6 °F 53.6 °F 100% 29.85 in 2.0 mi Calm Calm - N/A   Overcast
10:55 PM 53.6 °F 53.6 °F 100% 29.85 in 1.2 mi Calm Calm - N/A   Overcast
11:15 PM 53.6 °F 53.6 °F 100% 29.85 in 0.8 mi Calm Calm - N/A   Overcast
11:35 PM 53.6 °F 53.6 °F 100% 29.84 in 0.5 mi Calm Calm - N/A Fog Fog
11:55 PM 54.5 °F 54.5 °F 100% 29.84 in 0.5 mi Calm Calm - N/A Fog Fog